Regional Weather Roundup
Issued by NWS

Home | Current Version | Previous Version | Graphics & Text | Print | Product List | Glossary On
Versions: 1 2 3 4 5 6 7 8 9 10 11 12 13 14 15 16 17 18 19 20 21 22 23 24 25 26 27 28 29 30 31 32 33 34 35 36 37 38 39 40 41 42 43 44 45 46 47 48 49 50
000
ASUS45 KCYS 291310
RWRWY

WYOMING REGIONAL WEATHER ROUNDUP
NATIONAL WEATHER SERVICE CHEYENNE WY
700 AM MDT FRI AUG 29 2014

NOTE:  "FAIR" INDICATES FEW OR NO CLOUDS BELOW 12,000 FEET
WITH NO SIGNIFICANT WEATHER AND/OR OBSTRUCTIONS TO VISIBILITY.

WYZ001-291400-
YELLOWSTONE NATIONAL PARK

CITY           SKY/WX    TMP DP  RH WIND       PRES   REMARKS
LK YELLOWSTONE   N/A     40  39  97 CALM      30.30S
W YELLOWSTONE  NOT AVBL

$$
WYZ002>013-054>058-071-098>099-291400-
NORTHERN WYOMING

CITY           SKY/WX    TMP DP  RH WIND       PRES   REMARKS
JACKSON        PTCLDY    45  43  93 CALM      30.23R
CODY           CLOUDY    55  50  82 NW10      30.14S
GREYBULL       MOCLDY    58  53  84 NW6       30.07R
WORLAND        PTCLDY    53  50  89 S5        30.09R
SHERIDAN       CLOUDY    58  54  86 NW13      30.07R
BUFFALO        CLOUDY    58  49  72 CALM      30.11R
GILLETTE       CLOUDY    59  52  77 NW14      30.07R
HULETT         LGT RAIN  61  52  72 MISG      30.08
NEWCASTLE      FAIR      63  46  55 N13G18    30.03

$$
WYZ014>020-022>026-101>103-291400-
CENTRAL WYOMING

CITY           SKY/WX    TMP DP  RH WIND       PRES   REMARKS
BIG PINEY      CLEAR     40  38  93 N5        30.25R
PINEDALE       SUNNY     37  37 100 W6        30.27R WCI  33
DUBOIS         FAIR      45  37  76 NW10      30.23S
LANDER         PTCLDY    55  45  68 S3        30.17R
RIVERTON       CLEAR     54  44  69 W6        30.17R
CASPER         MOCLDY    58  46  64 E6        30.14R
DOUGLAS        PTCLDY    51  47  86 W7        30.12R

$$
WYZ021-027>030-104>119-291400-
SOUTHERN WYOMING

CITY           SKY/WX    TMP DP  RH WIND       PRES   REMARKS
EVANSTON       CLEAR     49  37  63 S9        30.27R
KEMMERER       SUNNY     50  41  71 W3        30.27S
FORT BRIDGER   FAIR      58  34  40 SW9       30.29R
ROCK SPRINGS   PTCLDY    52  41  66 SW10      30.24R
DIXON          FAIR      48  45  90 S5        30.27R
RAWLINS        CLEAR     54  44  69 W5        30.23R
SARATOGA       FAIR      52  43  71 SE8       30.26R
LARAMIE        PTCLDY    45  42  89 SE8       30.22R
CHEYENNE       PTCLDY    54  43  66 W9        30.12R
TORRINGTON     CLEAR     50  49  96 NW6       30.01R
PINE BLUFFS    FAIR      46  45  93 CALM      30.07S

$$


USA.gov is the U.S. government's official web portal to all federal, state and local government web resources and services.